Location: Newark
(14.6333°N, 90.5000°W)
Time: 23:30:42
(UTC+00:00)

DX 1 - Visible Passes

Search period start: 23 January 2020 00:00
Search period end: 02 February 2020 00:00
Orbit: 620 x 630 km, 98.4° (Epoch: 23 January)

Date Brightness Start Highest point End Pass type
(mag) Time Alt. Az. Time Alt. Az. Time Alt. Az.
23 Jan ? 09:56:23 10° SE 09:57:56 18° ESE 09:57:56 18° ESE visible
23 Jan ? 11:33:26 10° SW 11:35:12 14° WSW 11:35:12 14° WSW visible
24 Jan ? 10:14:31 10° SSE 10:16:58 30° SE 10:16:58 30° SE visible
25 Jan ? 10:33:04 10° SSE 10:36:01 43° SSE 10:36:01 43° SSE visible
26 Jan ? 10:51:57 10° S 10:55:03 41° SSW 10:55:03 41° SSW visible
27 Jan ? 11:11:13 10° SSW 11:14:06 27° WSW 11:14:06 27° WSW visible
28 Jan ? 09:54:28 10° SE 09:55:53 17° ESE 09:55:53 17° ESE visible
28 Jan ? 11:31:03 10° SW 11:33:09 16° WSW 11:33:09 16° WSW visible
29 Jan ? 10:12:31 10° SE 10:14:56 28° ESE 10:14:56 28° ESE visible
30 Jan ? 10:30:59 10° SSE 10:33:59 43° SSE 10:33:59 43° SSE visible
31 Jan ? 10:49:49 10° S 10:53:03 45° SSW 10:53:03 45° SSW visible
01 Feb ? 11:09:00 10° SSW 11:12:07 30° WSW 11:12:07 30° WSW visible
